4XADI LLMZ-LLMZ

Flight info

Callsign 4XADI
Flight time 0h 11m
Altitude 800
Route CIRCUITS
Aircraft C172/L-C/5100

Departure

Time 2026-04-12 19:30
Airport Bar Yehuda Airfield (LLMZ)

Arrival

Time 2026-04-12 19:41
Airport Bar Yehuda Airfield (LLMZ)
Time Latitude Longitude Altitude Speed Heading
2026-04-12 19:23 31.33315 35.38933 -1228 ft 0 kts 214°
2026-04-12 19:28 31.33309 35.38930 -1228 ft 0 kts 192°
2026-04-12 19:29 31.33305 35.38929 -1228 ft 0 kts 175°
2026-04-12 19:29 31.33304 35.38930 -1228 ft 1 kts 169°
2026-04-12 19:29 31.33180 35.38931 -1232 ft 47 kts 192°
2026-04-12 19:30 31.32731 35.38846 -1151 ft 74 kts 187°
2026-04-12 19:30 31.32261 35.38780 -881 ft 66 kts 184°
2026-04-12 19:30 31.31809 35.38727 -662 ft 66 kts 175°
2026-04-12 19:30 31.31423 35.39023 -488 ft 72 kts 115°
2026-04-12 19:31 31.31563 35.39558 -421 ft 78 kts 33°
2026-04-12 19:31 31.32022 35.39844 -465 ft 72 kts 22°
2026-04-12 19:31 31.32490 35.40047 -619 ft 67 kts 18°
2026-04-12 19:31 31.32902 35.40199 -637 ft 63 kts 13°
2026-04-12 19:32 31.33357 35.40291 -613 ft 70 kts
2026-04-12 19:32 31.33839 35.40271 -537 ft 64 kts 355°
2026-04-12 19:32 31.34178 35.40082 -462 ft 58 kts 317°
2026-04-12 19:32 31.34265 35.39614 -580 ft 73 kts 265°
2026-04-12 19:33 31.34073 35.39142 -684 ft 67 kts 209°
2026-04-12 19:33 31.33558 35.38999 -1040 ft 74 kts 189°
2026-04-12 19:33 31.33091 35.38908 -1213 ft 66 kts 188°
2026-04-12 19:33 31.32666 35.38813 -1131 ft 59 kts 191°
2026-04-12 19:34 31.32282 35.38714 -1036 ft 55 kts 194°
2026-04-12 19:34 31.31902 35.38569 -964 ft 55 kts 203°
2026-04-12 19:34 31.31536 35.38638 -864 ft 64 kts 129°
2026-04-12 19:34 31.31652 35.39137 -781 ft 83 kts 24°
2026-04-12 19:35 31.32131 35.39397 -501 ft 68 kts 32°
2026-04-12 19:35 31.32542 35.39680 -455 ft 65 kts 22°
2026-04-12 19:35 31.32991 35.39839 -478 ft 72 kts
2026-04-12 19:35 31.33543 35.39911 -575 ft 82 kts
2026-04-12 19:36 31.34040 35.39916 -611 ft 63 kts 356°
2026-04-12 19:36 31.34420 35.39729 -665 ft 61 kts 311°
2026-04-12 19:36 31.34487 35.39245 -788 ft 72 kts 240°
2026-04-12 19:36 31.34007 35.39088 -953 ft 76 kts 179°
2026-04-12 19:37 31.33489 35.39032 -1063 ft 72 kts 187°
2026-04-12 19:37 31.32926 35.38915 -1054 ft 91 kts 194°
2026-04-12 19:37 31.32306 35.38780 -955 ft 93 kts 189°
2026-04-12 19:37 31.31656 35.38637 -891 ft 95 kts 191°
2026-04-12 19:38 31.31069 35.38644 -616 ft 77 kts 146°
2026-04-12 19:38 31.30871 35.39216 -532 ft 80 kts 81°
2026-04-12 19:38 31.31236 35.39588 -480 ft 72 kts 17°
2026-04-12 19:38 31.31708 35.39738 -571 ft 64 kts 11°
2026-04-12 19:39 31.32175 35.39845 -612 ft 75 kts 12°
2026-04-12 19:39 31.32677 35.39981 -566 ft 72 kts
2026-04-12 19:39 31.33167 35.40060 -547 ft 73 kts
2026-04-12 19:39 31.33679 35.40071 -538 ft 71 kts 358°
2026-04-12 19:40 31.34131 35.40038 -516 ft 60 kts 343°
2026-04-12 19:40 31.34500 35.39685 -587 ft 79 kts 291°
2026-04-12 19:40 31.34437 35.39154 -678 ft 60 kts 215°
2026-04-12 19:40 31.34031 35.39076 -893 ft 60 kts 186°
2026-04-12 19:41 31.33602 35.39016 -1061 ft 62 kts 189°
2026-04-12 19:41 31.33188 35.38931 -1232 ft 53 kts 189°
2026-04-12 19:41 31.32954 35.38869 -1237 ft 19 kts 201°
2026-04-12 19:41 31.32922 35.38853 -1238 ft 0 kts 193°
2026-04-12 19:42 31.32914 35.38849 -1238 ft 5 kts 203°
2026-04-12 19:42 31.32912 35.38848 -1238 ft 0 kts 193°